Regional Weather Roundup
Issued by NWS

Home | Current Version | Previous Version | Graphics & Text | Print | Product List | Glossary Off
Versions: 1 2 3 4 5 6 7 8 9 10 11 12 13 14 15 16 17 18 19 20 21 22 23 24 25 26 27 28 29 30 31 32 33 34 35 36 37 38 39 40 41 42 43 44 45 46 47 48 49 50

000
ASUS43 KLOT 281009
RWRIL

ILLINOIS REGIONAL WEATHER ROUNDUP
NATIONAL WEATHER SERVICE CHICAGO/ROMEOVILLE IL
500 AM CDT FRI JUL 28 2017

NOTE: "FAIR" INDICATES FEW OR NO CLOUDS BELOW 12,000 FEET WITH NO
SIGNIFICANT WEATHER AND/OR OBSTRUCTIONS TO VISIBILITY.

* THESE STATIONS ARE NOT UNDER NWS QUALITY CONTROL. THEY ALSO MAY NOT
  REPORT WEATHER SUCH AS PRECIPITATION OR FOG.

ILZ001-002-007-009-015-016-024-281100-
NORTHWEST ILLINOIS

CITY           SKY/WX    TMP DP  RH WIND       PRES   REMARKS
MOLINE         CLEAR     64  57  78 N6        29.98R
STERLING*      PTCLDY    63  57  81 N8        29.98R
SAVANNA*       CLEAR     63  56  78 CALM      30.00R
$$

ILZ003-004-008-010-011-017-018-281100-
NORTH CENTRAL ILLINOIS

CITY           SKY/WX    TMP DP  RH WIND       PRES   REMARKS
ROCKFORD       PTCLDY    64  56  75 N12       29.99S
FREEPORT*      CLEAR     60  55  85 N5        30.01S
ROCHELLE*      CLEAR     62  58  86 N10       29.98R
DE KALB*       CLEAR     61  59  92 N6        29.98R
PERU*          PTCLDY    62  57  85 N8        29.95R
$$

ILZ005-006-012>014-019>023-281100-
NORTHEAST ILLINOIS

CITY           SKY/WX    TMP DP  RH WIND       PRES   REMARKS
CHICAGO-OHARE  PTCLDY    69  63  81 N14       29.93F
CHICAGO-MIDWAY PTCLDY    70  65  84 N13       29.93R
AURORA         CLEAR     65  61  87 N10       29.95S
LANSING*       CLEAR     71  63  76 NE8       29.92R
JOLIET*        CLEAR     68  65  88 N7        29.92S
WAUKEGAN       CLEAR     67  64  90 N7        29.96S
DUPAGE AIRPORT CLEAR     63  62  97 N8        29.94S
KANKAKEE*      CLOUDY    70  66  88 N8        29.91R
WHEELING       CLEAR     68  66  93 N8        29.96S
MORRIS*        CLEAR     64  61  89 CALM      29.92R
ROMEOVILLE*    CLEAR     66  62  85 NE12      29.93S
$$

LMZ740>746-281100-
SOUTHERN LAKE MICHIGAN

STATION/POSITION SKY/WX   TEMP    WIND        PRES    VSBY  WAVE
                          AIR SEA DIR/SP/G                  HT/PER
                          (F)     (DEG/KT/KT) (MB)    (MI)  (FT/S)
SOUTHERN BUOY              71 72   60/ 10/ 12 1014.1          3/ 6
WILMETTE HARBOR            71 71   10/ 14/ 17   N/A           5/ 6
HARRISON CRIB              72      30/ 13/ 14   N/A
BURNHAM HARBOR             70                   N/A
CALUMET HARBOR             72      10/  8/ 12 1013.0R
BURNS HARBOR               72      70/ 13/ 17 1013.5R
MICHIGAN CITY              69      70/  5/  6   N/A
MICHIGAN CITY 6N           72 73   80/ 12/ 16   N/A           4/ 6
ST. JOSEPH                 68 71   90/  8/ 12 1013.6          3/ 6
$$

ILZ025>027-034>036-040-047-049-050-058-095>099-281100-
WEST-CENTRAL ILLINOIS

CITY           SKY/WX    TMP DP  RH WIND       PRES   REMARKS
QUINCY         CLEAR     65  60  84 NE8       29.94R
GALESBURG*     CLEAR     59  56  91 N6        29.97S
MACOMB*        CLEAR     61  57  88 N6        29.97S
JACKSONVILLE*  CLEAR     65  62  91 N7        29.92R
PITTSFIELD*    PTCLDY    69  65  89 N3        29.93S
$$

ILZ028>032-037-038-041>044-048-051>054-059>061-281100-
CENTRAL ILLINOIS

CITY           SKY/WX    TMP DP  RH WIND       PRES   REMARKS
PONTIAC        PTCLDY    64  64  99 N7        29.92S
BLOOMINGTON    CLEAR     63  58  83 N10       29.92S
DECATUR        PTCLDY    67  62  84 N9        29.89R
PEORIA         CLEAR     63  58  83 VRB6      29.94R
LACON*         CLEAR     61  59  93 CALM      29.93S
LINCOLN*       PTCLDY    64  59  83 N6        29.91S
SPRINGFIELD    PTCLDY    67  62  84 N8        29.91R
TAYLORVILLE    PTCLDY    65  64  95 N6        29.90R
$$

ILZ033-039-045-046-055>057-062-063-281100-
EAST-CENTRAL ILLINOIS

CITY           SKY/WX    TMP DP  RH WIND       PRES   REMARKS
CHAMPAIGN      PTCLDY    66  63  90 N8        29.89R
RANTOUL*       CLEAR     68  65  91 N7        29.89R
MATTOON        CLOUDY    67  67 100 N7        29.87R
PARIS*         CLEAR     66  66 100 NW3       29.87R
$$

ILZ079-100>102-281100-
SOUTHWEST ILLINOIS

CITY           SKY/WX    TMP DP  RH WIND       PRES   REMARKS
ALTON          MOCLDY    70  68  95 CALM      29.89S
BELLEVILLE     CLOUDY    73  71  93 N8        29.88R
CAHOKIA*       CLOUDY    74  69  85 N9        29.88R
SPARTA*        RAIN      74  74  99 N3        29.87R
$$

ILZ064>066-069>071-074>076-080>082-084>086-088>090-092>094-281100-
SOUTH-CENTRAL ILLINOIS

CITY           SKY/WX    TMP DP  RH WIND       PRES   REMARKS
CARBONDALE     CLOUDY    75  75 100 NW7       29.82S
CAIRO*         MOCLDY    77  76  95 W5        29.82S
EFFINGHAM*     PTCLDY    68  68 100 NW5       29.88S
MARION         CLOUDY    77  77 100 CALM      29.83S
MT. VERNON     CLOUDY    75  74  96 N6        29.85R FOG
CENTRALIA*     CLOUDY    73  73  97 N7        29.85R FOG
SALEM*         CLOUDY    72  69  91 N7        29.86R
METROPOLIS*    CLOUDY    78  76  94 CALM      29.83S HX  80
$$

ILZ067-068-072-073-078-083-087-091-281100-
SOUTHEAST ILLINOIS

CITY           SKY/WX    TMP DP  RH WIND       PRES   REMARKS
LAWRENCEVILLE  CLOUDY    74  72  93 N7        29.84R FOG
FLORA*         CLOUDY    74  72  92 N6        29.86R
FAIRFIELD*     CLOUDY    75  74  99 N5        29.83R FOG
HARRISBURG*    CLOUDY    75  75  99 CALM      29.83S
ROBINSON*      CLOUDY    70  69  98 N5        29.85R FOG
CARMI*         CLOUDY    74  74 100 N3        29.82S
$$

ABBREVIATIONS USED IN REMARKS
   TC - TEMPERATURE IN CELSIUS
  WCI - WIND CHILL INDEX
   HX - HEAT INDEX
  VSB - VISIBILITY
$$





USA.gov is the U.S. government's official web portal to all federal, state and local government web resources and services.